Résultats de la compétition "Pâques en Alsace 2009 -J2" du 12-04-2009 organisée par le club 6804
     
  Télécharger le fichier CSV.  
     
     

 Circuit "Circuit F"

Licence Nom Prénom Temps CN
précédent
Score sur
la course
Différence
10869DENIERSimon0:36:50N/A5596N/A
366VESCOVOJ-Albert0:41:5347234921+198
20874NERADOVAAlena0:42:10N/A4888N/A
10867THEZEJulien0:43:1533874766+1379
2091VANNIERValerie0:43:3756504726-924
10882SCHOULLEROlivier0:44:1448654660-205
2759PAPILLONCecile0:44:5644804587+107
7983GUNTHERM-Christine0:45:3544714522+51
2179OLIVIERSandra0:45:5856364484-1152
16738GAYOTJerome0:47:3143474338-9
20974CRANCEMarie-cécile0:47:49N/A4311N/A
9618PECHSTEINUlrich0:49:1143164191-125
5918BEAUDRONCynthia0:49:1636864184+498
302BAGUEREYBaptiste0:49:3145784163-415
16117TARDYLaetitia0:50:1151514107-1044
2375MAKOVICKAEdwige0:50:1736394099+460
17503LUDWIGSébastien0:51:4135763988+412
11476DEBOCQMAINEAgnes0:52:0342893960-329
21254VIEILLE PETITJean Philippe0:52:25N/A3932N/A
7852TASSINElodie0:52:46N/A3906N/A
13244VARRONStephanie0:53:1148673876-991
2722PARIGOTVirginie0:54:0143973816-581
4373BONNEAUMathilde0:54:0736393809+170
743RIZZOTTOHelene0:55:25N/A3720N/A
11391CLEMENT-AGONIBenjamin0:57:3046113585-1026
20219BEAUDEQUINMaxime0:58:3628403518+678
15310BROUSSEIsabelle0:58:4635303508-22
13688FRANCOISAline0:59:3733123458+146
18371ARCHAMBEAULTLudovic1:00:5933053380+75
15859PIDOUXHugues1:01:5334803331-149
1752GRANSARTRenaud1:02:1038843316-568
18601PETINONChristine1:02:2531173302+185
13142LOEWAngelique1:02:5832083274+66
17309BESTELFlorence1:03:0932273264+37
8822LEGUENPascale1:04:52N/A3178N/A
14576GAFFURIA-Laure1:05:0731033166+63
12761MARCHANDStephanie1:05:14N/A3160N/A
21220TAISSONSandrine1:08:32N/A3008N/A
21333AUTERIOUXStéphane1:08:48N/A2996N/A
10721MAHLERArthur1:09:5329632950-13
14651EDIARHelene1:11:3424732880+407
13080BIDAUXM-Helene1:14:4932282755-473
21276PEREIRA DA COSTA DIASLuisa1:19:49N/A2583N/A
20722MOREAU-DESCOINGSFrançois1:27:24N/A2358N/A
17899DEPERSINIsabelle1:29:0729642313-651
7873CHATAGNIERAnne1:34:0718382190+352
17625MERCIERSylvie1:36:1228082143-665
20291CHOLLETCarine1:38:1823932097-296
20289DORLACOlivier1:44:0618151980+165
20024GRAUCathyN/A18100-1810

  Indice de confiance du circuit (moyenne des différences entre CN et score sur la course des 3 à 10 premiers) : 217






 Retour